Notices

What's New in latest Release from April 7th, 2021:

- Updated Glossary, including Speed of Maximum Gust, and Total Hourly Precipitation

- Updated national and regional climate services offices contacts and prices information

- Addition of station inventory lists for 1981-2010, 1971-2000, and 1961-1990 Normals.

If you haven't already, please take our survey and provide feedback about our website: https://eccc.sondage-survey.ca/f/LanguageSelection.aspx?s=442ca660-fcf1-47c0-95a9-59707d6fd709

Hourly Data Report for July 29, 2020

TORONTO CITY
ONTARIO
Current Station Operator: ECCC - MSC

43°40'00.000" N
79°24'00.000" W
112.50 m
6158355
71508
XTO

Download Data

Hourly Data (July 2020)
Hourly Data Report for July 29, 2020
TIME
LST
Temp Definition
°C
Dew Point Definition
°C
Rel Hum Definition
%
Precip. Amount Definition
mm

Wind Dir Definition
10's deg

Wind Spd Definition
km/h
Visibility Definition
km
Stn Press Definition
kPa
Hmdx Definition


Wind Chill Definition


Weather Definition


00:00 22.0 15.4 66 0.0       99.70 26   LegendNANA
01:00 21.3 15.4 69 0.0       99.68 26   LegendNANA
02:00 21.4 15.8 70 0.0       99.69 26   LegendNANA
03:00 20.8 15.3 71 0.0       99.65 25   LegendNANA
04:00 22.4 13.9 59 0.0       99.68 26   LegendNANA
05:00 22.3 14.2 60 0.0       99.71 26   LegendNANA
06:00 20.3 15.9 76 0.3       99.80 25   LegendNANA
07:00 19.7 16.6 83 0.3       99.79     LegendNANA
08:00 22.0 16.1 69 0.0       99.82 27   LegendNANA
09:00 21.9 16.1 70 0.0       99.81 27   LegendNANA
10:00 24.0 16.4 63 0.0       99.77 29   LegendNANA
11:00 26.4 15.4 51 0.0       99.75 31   LegendNANA
12:00 26.6 14.5 47 0.4       99.76 30   LegendNANA
13:00 27.6 13.7 43 0.0       99.70 31   LegendNANA
14:00 28.4 14.2 42 0.0       99.64 32   LegendNANA
15:00 27.5 14.6 45 0.4       99.58 31   LegendNANA
16:00 27.8 12.9 40 0.2       99.56 31   LegendNANA
17:00 28.7 11.2 34 0.0       99.55 31   LegendNANA
18:00 28.8 10.9 33 0.0       99.56 31   LegendNANA
19:00 27.7 11.8 37 0.0       99.64 30   LegendNANA
20:00 25.6 13.6 48 0.0       99.71 29   LegendNANA
21:00 24.4 15.2 56 0.0       99.78 28   LegendNANA
22:00 24.0 14.2 54 0.2       99.79 27   LegendNANA
23:00 23.6 12.8 51 0.0       99.81 26   LegendNANA

Notes on Data Quality.

Legend

  • E = Estimated
  • M = Missing
  • NA = Not Available*
  • [empty] = Indicates an unobserved value
Date modified: